This demonstration page uses our WeatherBlox Daily Observations layout. Learn more.

Left ArrowRight Arrow

Hourly Observations for August 30, 2020

Temp ( °F °C ) Dew Point ( °F °C ) Humidity (%) Winds ( mph kmh ) Pressure ( in mb ) Visibility ( mi km ) Precip ( " mm )
12:52 am 00:52 Mostly Cloudy 69 20.6 67 19.4 93 93 E 6 9 29.86 1011 10 16 0.00 0.00
1:07 am 01:07 Partly Cloudy 68 20 67 19.4 96 96 E 3 6 29.85 1011 10 16 0.00 0.00
1:52 am 01:52 Partly Cloudy 68 20 67 19.4 96 96 ENE 3 6 29.85 1011 10 16 0.00 0.00
2:25 am 02:25 Mostly Cloudy 68 20 66 18.9 93 93 NE 3 6 29.84 1011 10 16 0.00 0.00
2:34 am 02:34 Mostly Cloudy 68 20 67 19.4 96 96 NE 5 7 29.84 1011 10 16 0.00 0.00
2:52 am 02:52 Cloudy 68 20 67 19.4 96 96 ENE 8 13 29.84 1011 10 16 0.00 0.00
3:24 am 03:24 Cloudy 67 19.4 66 18.9 97 97 E 7 11 29.84 1010 10 16 0.00 0.00
3:37 am 03:37 Cloudy 68 20 66 18.9 93 93 E 7 11 29.83 1010 10 16 0.00 0.00
3:52 am 03:52 Cloudy 68 20 66 18.9 93 93 E 9 15 29.83 1010 10 16 0.00 0.00
4:52 am 04:52 Cloudy 68 20 66 18.9 93 93 ENE 6 9 29.82 1010 10 16 0.00 0.00
5:08 am 05:08 Cloudy 68 20 66 18.9 93 93 E 6 9 29.82 1010 10 16 0.00 0.00
5:52 am 05:52 Cloudy 68 20 67 19.4 96 96 ENE 7 11 29.82 1010 10 16 0.00 0.00
6:32 am 06:32 Cloudy 69 20.6 67 19.4 93 93 ENE 8 13 29.81 1010 10 16 0.00 0.00
6:52 am 06:52 Cloudy 69 20.6 67 19.4 93 93 E 6 9 29.82 1010 10 16 0.00 0.00
7:12 am 07:12 Cloudy 69 20.6 66 18.9 90 90 E 6 9 29.82 1010 10 16 0.00 0.00
7:52 am 07:52 Cloudy 69 20.6 67 19.4 93 93 E 6 9 29.82 1010 10 16 0.00 0.00
8:52 am 08:52 Cloudy with Mist and Fog 70 21.1 68 20 93 93 E 8 13 29.81 1009 4 6 0.00 0.00
9:42 am 09:42 Cloudy with Mist and Fog 70 21.1 69 20.6 97 97 SE 7 11 29.81 1009 3 4 0.00 0.00
9:52 am 09:52 Cloudy with Mist and Fog 70 21.1 69 20.6 97 97 SE 8 13 29.82 1010 3 4 0.00 0.00
10:17 am 10:17 Cloudy 70 21.1 69 20.6 97 97 SE 7 11 29.82 1010 7 11 0.01 0.25
10:47 am 10:47 Cloudy with Mist and Fog 70 21 70 21 100 100 SE 8 13 29.82 1010 3 4 0.01 0.25
10:52 am 10:52 Cloudy with Mist and Fog 70 21.1 70 21.1 100 100 SSE 8 13 29.83 1010 3 4 0.01 0.25
11:12 am 11:12 Cloudy with Mist and Fog 70 21.1 70 21.1 100 100 SSE 8 13 29.82 1010 3 5 0.00 0.00
11:52 am 11:52 Cloudy 71 21.7 70 21.1 96 96 SE 12 19 29.82 1010 9 14 0.00 0.00
12:52 pm 12:52 Cloudy with Mist and Fog 71 21.7 70 21.1 96 96 SSE 7 11 29.80 1009 6 10 0.00 0.00
1:52 pm 13:52 Cloudy 72 22.2 70 21.1 94 94 ESE 6 9 29.77 1008 10 16 0.00 0.00
2:52 pm 14:52 Cloudy 74 23.3 70 21.1 88 88 SSE 6 9 29.74 1007 10 16 0.00 0.00
3:08 pm 15:08 Cloudy 74 23.3 70 21.1 88 88 ESE 3 6 29.72 1006 8 13 0.00 0.00
3:52 pm 15:52 Cloudy 76 24.4 70 21.1 82 82 SE 7 11 29.73 1007 10 16 0.00 0.00
4:08 pm 16:08 Cloudy 75 23.9 70 21.1 84 84 VRB 6 9 29.71 1006 10 16 0.00 0.00
4:19 pm 16:19 Cloudy 76 24.4 70 21.1 82 82 SE 3 6 29.70 1006 10 16 0.00 0.00
4:52 pm 16:52 Cloudy 76 24.4 70 21.1 82 82 S 3 6 29.72 1007 10 16 0.00 0.00
5:48 pm 17:48 Partly Cloudy 77 25 70 21 79 79 ESE 6 9 29.69 1005 10 16 0.00 0.00
5:52 pm 17:52 Mostly Sunny 77 25 71 21.7 82 82 VRB 6 9 29.72 1006 10 16 0.00 0.00
6:52 pm 18:52 Cloudy 77 25 70 21.1 79 79 SE 7 11 29.72 1006 10 16 0.00 0.00
7:52 pm 19:52 Cloudy 75 23.9 71 21.7 88 88 ESE 7 11 29.72 1007 10 16 0.00 0.00
8:52 pm 20:52 Partly Cloudy 73 22.8 70 21.1 90 90 SE 7 11 29.74 1007 10 16 0.00 0.00
9:52 pm 21:52 Clear 72 22.2 70 21.1 94 94 SE 8 13 29.75 1007 10 16 0.00 0.00
10:52 pm 22:52 Mostly Clear 72 22.2 70 21.1 94 94 SE 8 13 29.75 1007 10 16 0.00 0.00
11:52 pm 23:52 Clear 71 21.7 70 21.1 96 96 SSE 10 17 29.75 1007 10 16 0.00 0.00

Powered by AerisWeather